Home > Weather > Fürstenfeld > Past weeks

Flag for Austria Weather for the Past 2 Weeks in Fürstenfeld, Styria, Austria

Now
54 °F

Cool.


Feels Like: 52 °F
Forecast: 34 / 49 °F
Wind: 9 mph from Southwest

Location: Murska Sobota

Current Time: Feb 9, 2016 at 11:48:35 AM

Latest Report: Feb 9, 2016 at 10:00 AM


Visibility: N/A

Pressure: 29.88 "Hg

Humidity: 61%

Dew point: 41 °F

Location of FürstenfeldLocation

Historic Weather in Fürstenfeld — Graph

°F

Fürstenfeld Temperature Yesterday

Maximum temperature yesterday: 56 °F (at 2:00 PM)
Minimum temperature yesterday: 43 °F (at 7:00 AM)
Average temperature yesterday: 51 °F

High & Low Weather Summary for the Past Weeks

 TemperatureHumidityPressure
High62 °F (Feb 1, 4:00 PM)100% (Jan 30, 10:00 AM)30.47 "Hg (Jan 30, 10:00 AM)
Low27 °F (Feb 6, 7:00 AM)45% (Feb 4, 3:00 PM)29.85 "Hg (Feb 9, 3:00 AM)
Average43 °F78%30.18 "Hg
* Reported Jan 25 10:00 AM — Feb 9 10:00 AM, Fürstenfeld, Weather by CustomWeather, © 2016

Note: Actual official high and low records may vary slightly from our data, if they occured in-between our weather recording intervals... More about our weather records

Advertising

Fürstenfeld Weather History for the Previous 24 Hours

 ConditionsComfort  
Time TempWeatherWind HumidityBarometerVisibility
10:00 AM
Tue, Feb 9
54 °FCool.9 mph61%29.88 "HgN/A
8:00 AM50 °FPassing clouds.3 mph68%29.90 "Hg25 mi
5:00 AM51 °FCool.6 mph69%29.88 "HgN/A
3:00 AM52 °FCool.6 mph69%29.85 "HgN/A
2:00 AM53 °FCool.7 mph68%29.86 "HgN/A
11:00 PM
Mon, Feb 8
53 °FCool.7 mph73%29.85 "HgN/A
9:00 PM52 °FCool.3 mph72%29.86 "HgN/A
8:00 PM54 °FCool.5 mph68%29.86 "HgN/A
7:00 PM54 °FOvercast.6 mph65%29.86 "Hg12 mi
6:00 PM55 °FCool.5 mph63%29.88 "HgN/A
5:00 PM56 °FRefreshingly cool.6 mph59%29.86 "HgN/A
4:00 PM56 °FRefreshingly cool.3 mph59%29.86 "HgN/A
3:00 PM56 °FRefreshingly cool.5 mph57%29.87 "HgN/A
2:00 PM56 °FPartly sunny.6 mph56%29.88 "Hg31 mi
1:00 PM55 °FOvercast.6 mph58%29.91 "Hg31 mi
12:00 PM55 °FCool.5 mph59%29.94 "HgN/A
11:00 AM51 °FCool.1 mph68%29.97 "HgN/A
Weather by CustomWeather, © 2016

See weather overviewHow to use our weather pages